DECAYED

STARLINK-2351, 47891 (Decayed)

Orbit data source: Space-Track

STARLINK-2351, 47891 was a payload satellite owned by SpaceX/Seattle (US) in LEO that was launched on Sun, 14 Mar 2021 UTC via an FALCON 9 launch vehicle from the Air Force Eastern Test Range (AFETR). Payload-class satellites include a variety of spacecraft equipped with specific instruments for various scientific and technological missions. These include communications satellites like Starlink; space stations such as the ISS; scientific satellites like the Hubble; Earth observation satellites from companies like Planet Labs, Umbra, and HawkEye 360; GPS; miniature CubeSats for education and research; and military/defense satellites.

Not visible in the next 10 days
Identifier
47891, 2021-021AH
Orbit
Decayed
Country
Flag of USUS
Related business
Manufacturer
SpaceX/Seattle
Mission
Decayed Commercial Communications
Bus & Motor
STARLINK, Unknown motor
Mass
260 kg wet, ~248 kg dry
Launch date (UTC)
2021-03-14 (5 years ago)
Launch vehicle
FALCON 9
Launch site
Air Force Eastern Test Range (AFETR)
Object type
Payload
Rocket body
Debris
Shape & HBR
Box + 1 Pan, 10.1 m
Radar Cross Section
13.562 m², Large (>1 m²)

Expand to show TLE details & history
Last TLE update: 1 year ago

TLE from 1 year ago
0 STARLINK-2351
1 47891U 21021AH  24365.57838795  .13788058  12476-4  68579-3 0  9999
2 47891  53.0275  36.5933 0002120  33.2647 107.8225 16.43007534210609
Epoch: 2024-12-30T13:52Z
TLE epoch observation values (Epoch: 2024-12-30T13:52:52.718Z)
Latitude
30.20315°
Longitude
-116.95275°
Altitude
159.959 km
Speed
7.814 km/s
True Right ascension
12h 43m 03s
True Declination
30° 02' 25"
Sunlit
Object was in daylight at epoch
Visualization orbit readout
Latitude
Unknown
Longitude
Unknown
Altitude
Unknown
Speed
Unknown
Apparent Right ascension
Unknown
Apparent Declination
Unknown
Sunlit
N/A
Visualization observer readout
Local Sidereal Time
21:32:50
Azimuth
Unknown
Elevation
Unknown
Doppler factor
Unknown
Orbital elements
Apogee altitude
159.491 km
Perigee altitude
156.72 km
Semi-major axis
6,536.242 km
Eccentricity
0.00021
Inclination
53.0275°
RAAN
36.5933°
Arg. of periapsis
33.2647°
True anomaly
107.84563°
Mean anomaly
107.8225°
Eccentric anomaly
107.83406°
Mean motion
4.10725 °/min
Orbital period
87.65 mins
BSTAR
0.00068579
Loading maneuver chart data...
Computing Atmospheric mass density...

Documentation

Showing up to 5 results
|